Flag for Germany Weather past 2 weeks in Kehl, Baden-Württemberg, Germany

Now
66 °F

Clear.


Feels Like: 66 °F
Forecast: 55 / 79 °F
Wind: 6 mph from North

Location: Strasbourg Airport

Current Time: Jul 25, 2014 at 1:19:25 AM

Latest Report: Jul 25, 2014 at 1:00 AM


Visibility: N/A

Pressure: 29.92 "Hg

Humidity: 73%

Dew point: 57 °F

Location of KehlLocation

Historic Weather in Kehl — Graph

°F

Kehl temperature yesterday

Maximum temperature yesterday: 82 °F (at 1:30 PM)
Minimum temperature yesterday: 61 °F (at 5:00 AM)
Average temperature yesterday: 73 °F

Past Weeks' High & Low Weather Summary

 TemperatureHumidityPressure
High93 °F (Jul 19, 5:30 PM)100% (Jul 10, 6:00 AM)30.18 "Hg (Jul 10, 6:00 AM)
Low54 °F (Jul 10, 12:30 AM)29% (Jul 18, 4:00 PM)29.74 "Hg (Jul 10, 4:00 AM)
Average70 °F74%29.96 "Hg
* Reported Midnight between Jul 9 and Jul 10 — Midnight between Jul 24 and Jul 25, Kehl, Weather by CustomWeather, © 2014

Note: Actual official high and low records may vary slightly from our data, if they occured in-between our weather recording intervals... More about our weather records

Advertising

Kehl weather history for previous 24 hours

 ConditionsComfort  
Time TempWeatherWind HumidityBarometerVisibility
12:00 AM
Jul 25
68 °FClear.6 mph73%29.92 "HgN/A
11:30 PM
Jul 24
68 °FClear.7 mph73%29.92 "HgN/A
11:00 PM70 °FPassing clouds.6 mph64%29.92 "HgN/A
10:30 PM70 °FClear.8 mph64%29.92 "HgN/A
10:00 PM70 °FLight rain. Clear.2 mph69%29.89 "HgN/A
9:30 PM72 °FClear.No wind65%29.89 "HgN/A
9:00 PM73 °FClear.2 mph61%29.89 "HgN/A
8:30 PM77 °FClear.3 mph47%29.86 "HgN/A
8:00 PM79 °FClear.6 mph39%29.86 "HgN/A
7:30 PM81 °FClear.6 mph34%29.86 "HgN/A
7:00 PM82 °FClear.8 mph35%29.86 "HgN/A
6:30 PM82 °FClear.6 mph35%29.86 "HgN/A
6:00 PM82 °FClear.7 mph35%29.86 "HgN/A
5:30 PM82 °FClear.7 mph35%29.86 "HgN/A
5:00 PM82 °FPassing clouds.8 mph32%29.89 "HgN/A
4:30 PM82 °FClear.7 mph37%29.89 "HgN/A
4:00 PM82 °FClear.8 mph37%29.89 "HgN/A
3:30 PM82 °FClear.8 mph32%29.89 "HgN/A
3:00 PM82 °FClear.10 mph35%29.89 "HgN/A
2:30 PM82 °FClear.9 mph32%29.89 "HgN/A
2:00 PM82 °FClear.10 mph40%29.89 "HgN/A
1:30 PM82 °FClear.10 mph35%29.89 "HgN/A
1:00 PM81 °FClear.8 mph42%29.89 "HgN/A
12:30 PM81 °FClear.9 mph45%29.89 "HgN/A
12:00 PM79 °FClear.9 mph48%29.89 "HgN/A
11:30 AM79 °FClear.9 mph51%29.89 "HgN/A
11:00 AM77 °FClear.8 mph51%29.92 "HgN/A
10:30 AM75 °FClear.8 mph50%29.89 "HgN/A
10:00 AM73 °FClear.9 mph53%29.89 "HgN/A
9:30 AM73 °FClear.9 mph57%29.89 "HgN/A
9:00 AM72 °FClear.10 mph61%29.89 "HgN/A
8:30 AM70 °FClear.6 mph64%29.89 "HgN/A
7:30 AM66 °FClear.5 mph78%29.89 "HgN/A
7:00 AM63 °FClear.6 mph83%29.89 "HgN/A
6:30 AM61 °FClear.5 mph88%29.89 "HgN/A
6:00 AM61 °FClear.3 mph88%29.89 "HgN/A
5:30 AM61 °FClear.5 mph88%29.89 "HgN/A
5:00 AM61 °FClear.5 mph88%29.89 "HgN/A
4:30 AM63 °FClear.2 mph83%29.89 "HgN/A
4:00 AM64 °FClear.5 mph78%29.89 "HgN/A
3:30 AM64 °FClear.7 mph83%29.89 "HgN/A
3:00 AM66 °FClear.7 mph78%29.89 "HgN/A
2:30 AM66 °FClear.5 mph78%29.89 "HgN/A
2:00 AM66 °FClear.6 mph73%29.89 "HgN/A
1:30 AM66 °FClear.5 mph78%29.89 "HgN/A
1:00 AM66 °FClear.5 mph78%29.92 "HgN/A
Weather by CustomWeather, © 2014

See weather overviewHow to use our weather pages